TimeEST,TemperatureF,Dew PointF,Humidity,Sea Level PressureIn,VisibilityMPH,Wind Direction,Wind SpeedMPH,Gust SpeedMPH,PrecipitationIn,Events,Conditions,WindDirDegrees,DateUTC
12:56 AM,35.1,28.9,78,30.20,10.0,Calm,Calm,-,N/A,,Scattered Clouds,0,2012-12-12 05:56:00
1:56 AM,34.0,28.0,79,30.23,10.0,Calm,Calm,-,N/A,,Clear,0,2012-12-12 06:56:00
2:56 AM,33.1,28.0,82,30.25,10.0,Calm,Calm,-,N/A,,Clear,0,2012-12-12 07:56:00
3:56 AM,33.1,28.0,82,30.26,10.0,Calm,Calm,-,N/A,,Clear,0,2012-12-12 08:56:00
4:56 AM,33.1,27.0,78,30.30,10.0,NNW,3.5,-,N/A,,Clear,330,2012-12-12 09:56:00
5:56 AM,32.0,26.1,79,30.32,10.0,Calm,Calm,-,N/A,,Clear,0,2012-12-12 10:56:00
6:56 AM,30.0,25.0,82,30.35,10.0,Calm,Calm,-,N/A,,Clear,0,2012-12-12 11:56:00
7:56 AM,30.9,27.0,85,30.36,10.0,Calm,Calm,-,N/A,,Clear,0,2012-12-12 12:56:00
8:56 AM,39.0,34.0,82,30.38,10.0,Calm,Calm,-,N/A,,Clear,0,2012-12-12 13:56:00
9:56 AM,39.9,28.0,63,30.38,10.0,North,3.5,-,N/A,,Clear,350,2012-12-12 14:56:00
10:56 AM,43.0,26.1,51,30.38,10.0,NNW,5.8,-,N/A,,Clear,340,2012-12-12 15:56:00
12:56 PM,43.0,24.1,47,30.36,10.0,NW,6.9,-,N/A,,Clear,320,2012-12-12 17:56:00
1:56 PM,43.0,24.1,47,30.36,10.0,NNW,6.9,-,N/A,,Clear,340,2012-12-12 18:56:00
2:56 PM,43.0,25.0,49,30.37,10.0,NW,5.8,-,N/A,,Clear,320,2012-12-12 19:56:00
3:56 PM,41.0,24.1,51,30.38,10.0,NNW,5.8,-,N/A,,Clear,340,2012-12-12 20:56:00
4:56 PM,36.0,25.0,64,30.40,10.0,Calm,Calm,-,N/A,,Clear,0,2012-12-12 21:56:00
5:56 PM,34.0,24.1,67,30.41,10.0,Calm,Calm,-,N/A,,Clear,0,2012-12-12 22:56:00
6:56 PM,32.0,24.1,73,30.41,10.0,Calm,Calm,-,N/A,,Clear,0,2012-12-12 23:56:00
7:56 PM,30.9,25.0,79,30.41,10.0,Calm,Calm,-,N/A,,Clear,0,2012-12-13 00:56:00
8:56 PM,32.0,26.1,79,30.43,10.0,Calm,Calm,-,N/A,,Clear,0,2012-12-13 01:56:00
9:56 PM,30.9,26.1,82,30.44,10.0,Calm,Calm,-,N/A,,Clear,0,2012-12-13 02:56:00
10:56 PM,30.9,26.1,82,30.43,10.0,Calm,Calm,-,N/A,,Clear,0,2012-12-13 03:56:00
11:56 PM,32.0,27.0,82,30.43,10.0,Calm,Calm,-,N/A,,Clear,0,2012-12-13 04:56:00